| time (UTC) | temp F | wind direction | speed knots | gust knots | rain 1hr in | rain 24hr in | rain mn in | humidity % | barometer mb |
| 20260503200002 | 68 | 344 | 0.0 | 7.0 | 0.00 | 0.00 | 0.00 | 34 | 1014.9 |
| 20260503195003 | 68 | 308 | 0.0 | 6.1 | 0.00 | 0.00 | 0.00 | 34 | 1015.1 |
| 20260503194003 | 68 | 300 | 0.0 | 6.1 | 0.00 | 0.00 | 0.00 | 34 | 1015.4 |
| 20260503193002 | 68 | 300 | 0.0 | 6.1 | 0.00 | 0.00 | 0.00 | 33 | 1015.7 |
| 20260503192002 | 68 | 280 | 0.0 | 7.0 | 0.00 | 0.00 | 0.00 | 36 | 1016.1 |
| 20260503191002 | 67 | 186 | 0.0 | 6.1 | 0.00 | 0.00 | 0.00 | 34 | 1016.1 |
| 20260503190002 | 67 | 324 | 0.0 | 6.1 | 0.00 | 0.00 | 0.00 | 34 | 1016.3 |
| 20260503185002 | 66 | 34 | 0.0 | 6.1 | 0.00 | 0.00 | 0.00 | 34 | 1016.5 |
| 20260503184002 | 67 | 14 | 0.0 | 4.3 | 0.00 | 0.00 | 0.00 | 34 | 1016.6 |
| 20260503183002 | 67 | 318 | 0.0 | 6.1 | 0.00 | 0.00 | 0.00 | 33 | 1016.6 |
| 20260503182002 | 68 | 304 | 0.0 | 5.2 | 0.00 | 0.00 | 0.00 | 36 | 1016.7 |
| 20260503181002 | 66 | 352 | 0.0 | 5.2 | 0.00 | 0.00 | 0.00 | 32 | 1016.8 |
| 20260503180003 | 66 | 133 | 0.0 | 3.5 | 0.00 | 0.00 | 0.00 | 34 | 1017.1 |
| 20260503175003 | 66 | 80 | 0.0 | 6.1 | 0.00 | 0.00 | 0.00 | 35 | 1017.1 |
| 20260503174003 | 66 | 325 | 0.0 | 5.2 | 0.00 | 0.00 | 0.00 | 34 | 1017.4 |
| 20260503173003 | 65 | 306 | 0.0 | 7.8 | 0.00 | 0.00 | 0.00 | 32 | 1017.5 |
| 20260503172002 | 66 | 295 | 0.0 | 6.1 | 0.00 | 0.00 | 0.00 | 35 | 1017.7 |
| 20260503171002 | 65 | 304 | 0.0 | 5.2 | 0.00 | 0.00 | 0.00 | 36 | 1018.0 |
| 20260503151003 | 61 | 323 | 0.0 | 5.2 | 0.00 | 0.00 | 0.00 | 42 | 1019.4 |
| 20260503131002 | 40 | 43 | 0.0 | 1.7 | 0.00 | 0.00 | 0.00 | 99 | 1020.5 |
| 20260503081002 | 31 | 0.0 | 0.0 | 0.00 | 0.00 | 0.00 | 99 | 1019.7 | |
| 20260503072003 | 32 | 0.0 | 0.0 | 0.00 | 0.00 | 0.00 | 99 | 1019.6 | |
| 20260503071003 | 32 | 0.0 | 0.0 | 0.00 | 0.00 | 0.00 | 99 | 1019.6 | |
| 20260503055002 | 32 | 0.0 | 0.0 | 0.00 | 0.00 | 0.00 | 99 | 1020.0 | |
| 20260503054002 | 33 | 0.0 | 0.0 | 0.00 | 0.00 | 0.00 | 99 | 1020.0 | |
| 20260503053002 | 33 | 0.0 | 0.0 | 0.00 | 0.00 | 0.00 | 99 | 1020.0 | |
| 20260503052002 | 33 | 0.0 | 0.0 | 0.00 | 0.00 | 0.00 | 99 | 1019.9 | |
| 20260503051002 | 34 | 0.0 | 0.0 | 0.00 | 0.00 | 0.00 | 99 | 1019.9 | |
| 20260503050002 | 34 | 180 | 0.0 | 1.7 | 0.00 | 0.00 | 0.00 | 99 | 1019.8 |
| 20260503045003 | 34 | 0.0 | 0.0 | 0.00 | 0.00 | 0.00 | 99 | 1019.9 | |
| 20260503044003 | 34 | 0.0 | 0.0 | 0.00 | 0.00 | 0.00 | 99 | 1019.9 | |
| 20260503043003 | 34 | 0.0 | 0.0 | 0.00 | 0.00 | 0.00 | 99 | 1019.9 | |
| 20260503042003 | 35 | 0.0 | 0.0 | 0.00 | 0.00 | 0.00 | 99 | 1019.9 | |
| 20260503041003 | 35 | 0.0 | 0.0 | 0.00 | 0.00 | 0.00 | 99 | 1019.9 | |
| 20260503040003 | 35 | 0.0 | 0.0 | 0.00 | 0.00 | 0.00 | 98 | 1019.9 | |
| 20260503035002 | 35 | 0.0 | 0.0 | 0.00 | 0.00 | 0.00 | 97 | 1020.0 | |
| 20260503034002 | 35 | 0.0 | 0.0 | 0.00 | 0.00 | 0.00 | 96 | 1019.9 | |
| 20260503033002 | 36 | 0.0 | 0.0 | 0.00 | 0.00 | 0.00 | 95 | 1019.9 | |
| 20260503032002 | 37 | 0.0 | 0.0 | 0.00 | 0.00 | 0.00 | 94 | 1019.8 | |
| 20260503031002 | 37 | 0.0 | 0.0 | 0.00 | 0.00 | 0.00 | 92 | 1019.8 | |
| 20260503030002 | 37 | 0.0 | 0.0 | 0.00 | 0.00 | 0.00 | 91 | 1019.6 | |
| 20260503025002 | 38 | 0.0 | 0.0 | 0.00 | 0.00 | 0.00 | 89 | 1019.6 | |
| 20260503024002 | 38 | 180 | 0.0 | 1.7 | 0.00 | 0.00 | 0.00 | 86 | 1019.5 |
| 20260503023002 | 39 | 180 | 0.0 | 1.7 | 0.00 | 0.00 | 0.00 | 83 | 1019.3 |
| 20260503022002 | 39 | 180 | 0.0 | 1.7 | 0.00 | 0.00 | 0.00 | 80 | 1019.1 |
| 20260503021003 | 40 | 0.0 | 0.0 | 0.00 | 0.00 | 0.00 | 76 | 1019.0 | |
| 20260503020003 | 40 | 0.0 | 0.0 | 0.00 | 0.00 | 0.00 | 73 | 1018.9 | |
| 20260503015003 | 41 | 243 | 0.0 | 1.7 | 0.00 | 0.00 | 0.00 | 71 | 1018.6 |
| 20260503014003 | 42 | 180 | 0.0 | 1.7 | 0.00 | 0.00 | 0.00 | 69 | 1018.6 |
| 20260503013002 | 43 | 177 | 0.0 | 1.7 | 0.00 | 0.00 | 0.00 | 65 | 1018.4 |
| 20260503012002 | 44 | 180 | 0.0 | 1.7 | 0.00 | 0.00 | 0.00 | 64 | 1018.2 |
| 20260503011003 | 45 | 195 | 0.0 | 2.6 | 0.00 | 0.00 | 0.00 | 53 | 1018.0 |
| 20260503010002 | 46 | 187 | 0.0 | 1.7 | 0.00 | 0.00 | 0.00 | 54 | 1018.0 |
| 20260503005002 | 47 | 189 | 0.0 | 1.7 | 0.00 | 0.00 | 0.00 | 49 | 1017.9 |
| 20260503004002 | 48 | 166 | 0.0 | 2.6 | 0.00 | 0.00 | 0.00 | 49 | 1017.6 |
| 20260503003002 | 50 | 78 | 0.0 | 2.6 | 0.00 | 0.00 | 0.00 | 43 | 1017.6 |
| 20260503002002 | 50 | 310 | 0.0 | 4.3 | 0.00 | 0.00 | 0.00 | 41 | 1017.4 |
| 20260503001002 | 51 | 72 | 0.0 | 3.5 | 0.00 | 0.00 | 0.00 | 42 | 1017.2 |
| 20260503000002 | 52 | 332 | 0.0 | 6.1 | 0.00 | 0.00 | 0.00 | 40 | 1017.2 |
| 20260502235002 | 54 | 309 | 0.0 | 7.8 | 0.00 | 0.00 | 0.00 | 38 | 1017.0 |
| 20260502234002 | 55 | 329 | 0.0 | 8.7 | 0.00 | 0.00 | 0.00 | 36 | 1016.9 |
| 20260502233002 | 56 | 316 | 0.0 | 4.3 | 0.00 | 0.00 | 0.00 | 36 | 1016.9 |
| 20260502232003 | 55 | 349 | 0.0 | 5.2 | 0.00 | 0.00 | 0.00 | 36 | 1016.9 |
| 20260502231003 | 55 | 8 | 0.0 | 6.1 | 0.00 | 0.00 | 0.00 | 38 | 1016.9 |
| 20260502230003 | 55 | 21 | 0.0 | 7.0 | 0.00 | 0.00 | 0.00 | 37 | 1016.7 |
| 20260502225003 | 55 | 22 | 0.0 | 5.2 | 0.00 | 0.00 | 0.00 | 37 | 1016.9 |
| 20260502224002 | 55 | 360 | 0.0 | 3.5 | 0.00 | 0.00 | 0.00 | 36 | 1016.9 |
| 20260502223002 | 56 | 357 | 0.0 | 7.0 | 0.00 | 0.00 | 0.00 | 36 | 1016.7 |
| 20260502222002 | 55 | 178 | 0.0 | 5.2 | 0.00 | 0.00 | 0.00 | 36 | 1016.7 |
| 20260502221002 | 56 | 342 | 0.0 | 5.2 | 0.00 | 0.00 | 0.00 | 36 | 1016.7 |
| 20260502220002 | 56 | 58 | 0.0 | 7.8 | 0.00 | 0.00 | 0.00 | 36 | 1016.5 |
| 20260502215002 | 56 | 342 | 0.0 | 4.3 | 0.00 | 0.00 | 0.00 | 35 | 1016.5 |
| 20260502214002 | 55 | 330 | 0.0 | 6.1 | 0.00 | 0.00 | 0.00 | 35 | 1016.6 |
| 20260502213002 | 56 | 345 | 0.0 | 6.1 | 0.00 | 0.00 | 0.00 | 36 | 1016.5 |
| 20260502212002 | 56 | 309 | 0.0 | 7.0 | 0.00 | 0.00 | 0.00 | 34 | 1016.5 |
| 20260502211002 | 56 | 234 | 0.0 | 5.2 | 0.00 | 0.00 | 0.00 | 34 | 1016.5 |
| 20260502210002 | 56 | 289 | 0.0 | 9.6 | 0.00 | 0.00 | 0.00 | 35 | 1016.5 |
| 20260502205002 | 56 | 1 | 0.0 | 7.8 | 0.00 | 0.00 | 0.00 | 34 | 1016.6 |
| 20260502204003 | 57 | 8 | 0.0 | 6.1 | 0.00 | 0.00 | 0.00 | 35 | 1016.6 |
| 20260502203003 | 55 | 252 | 0.0 | 7.8 | 0.00 | 0.00 | 0.00 | 35 | 1016.7 |
| 20260502202003 | 57 | 327 | 0.0 | 11.3 | 0.00 | 0.00 | 0.00 | 32 | 1016.8 |
| 20260502201003 | 60 | 318 | 0.0 | 7.0 | 0.00 | 0.00 | 0.00 | 33 | 1016.7 |